This is the latest recevied weather packets stored in our database for station/object W0WFX-2. If no packets are shown the sender has not sent any weather packets the latest 10 day(s).
| Time | Temp. | Humidity | Pressure | Rain* | Wind** | Luminosity | Snow |
|---|---|---|---|---|---|---|---|
| 1788137069 | 32.78° C | 42% | 1011.1 hPa | 0 mm | - | 6 W/m² | - |
| 1788136764 | 32.78° C | 41% | 1010.9 hPa | 0 mm | - | 9 W/m² | - |
| 1788136460 | 32.78° C | 40% | 1010.8 hPa | 0 mm | - | 12 W/m² | - |
| 1788136160 | 33.33° C | 40% | 1010.7 hPa | 0 mm | - | 15 W/m² | - |
| 1788135859 | 33.33° C | 39% | 1010.7 hPa | 0 mm | - | 18 W/m² | - |
| 1788135554 | 33.89° C | 38% | 1010.8 hPa | 0 mm | - | 21 W/m² | - |
| 1788135249 | 33.89° C | 37% | 1010.8 hPa | 0 mm | - | 24 W/m² | - |
| 1788134947 | 34.44° C | 36% | 1010.7 hPa | 0 mm | - | 26 W/m² | - |
| 1788134642 | 34.44° C | 36% | 1010.7 hPa | 0 mm | - | 28 W/m² | - |
| 1788134340 | 34.44° C | 35% | 1010.7 hPa | 0 mm | - | 31 W/m² | - |
| 1788134034 | 35° C | 35% | 1010.8 hPa | 0 mm | - | 33 W/m² | - |
| 1788133730 | 35° C | 35% | 1010.8 hPa | 0 mm | - | 36 W/m² | - |
| 1788133426 | 35° C | 34% | 1010.8 hPa | 0 mm | - | 38 W/m² | - |
| 1788133122 | 35.56° C | 34% | 1010.6 hPa | 0 mm | - | 39 W/m² | - |
| 1788132817 | 35.56° C | 34% | 1010.8 hPa | 0 mm | - | 42 W/m² | - |
| 1788132512 | 35.56° C | 34% | 1010.8 hPa | 0 mm | - | 43 W/m² | - |
| 1788132208 | 35.56° C | 34% | 1010.8 hPa | 0 mm | - | 46 W/m² | - |
| 1788131904 | 35.56° C | 34% | 1010.6 hPa | 0 mm | - | 61 W/m² | - |
| 1788131599 | 36.11° C | 34% | 1010.6 hPa | 0 mm | - | 51 W/m² | - |
| 1788131299 | 36.11° C | 34% | 1010.7 hPa | 0 mm | - | 59 W/m² | - |
| 1788130994 | 36.11° C | 34% | 1010.9 hPa | 0 mm | - | 51 W/m² | - |
| 1788130694 | 36.11° C | 34% | 1010.6 hPa | 0 mm | - | 51 W/m² | - |
| 1788130389 | 36.67° C | 34% | 1010.5 hPa | 0 mm | - | 54 W/m² | - |
| 1788130089 | 36.67° C | 33% | 1010.7 hPa | 0 mm | - | 55 W/m² | - |
| 1788129783 | 36.67° C | 33% | 1010.6 hPa | 0 mm | - | 58 W/m² | - |
* Rain latest hour (hover to see other rain measurements)
** Current wind speed in m/s (hover to see current wind gust speed)